Weather History for PAIL - January, 2014

Change the Weather History Date:

Friday, January 24, 2014

  Actual Average (PADQ) Record (PADQ)
Temperature  
Mean Temperature 41 °F 30 °F  
Max Temperature 45 °F 35 °F 50 °F (1950)
Min Temperature 37 °F 26 °F -2 °F (1973)
Degree Days  
Heating Degree Days 24 35  
Month to date heating degree days 828  
Since 1 July heating degree days 4669  
Cooling Degree Days 0    
Month to date cooling degree days  
Year to date cooling degree days  
Moisture  
Dew Point 37 °F    
Average Humidity 85    
Maximum Humidity 100    
Minimum Humidity 65    
Precipitation  
Precipitation 0.01 in 0.25 in 2.16 in (1976)
Month to date precipitation 6.59  
Year to date precipitation 6.59  
Snow  
Snow 0.00 in 0.40 in 5.00 in (1976)
Month to date snowfall 9.7  
Since 1 July snowfall 31.0  
Snow Depth -    
Sea Level Pressure  
Sea Level Pressure 29.80 in    
Wind  
Wind Speed 7 mph (East)    
Max Wind Speed 17 mph    
Max Gust Speed 25 mph    
Visibility 10 miles    
Events Rain    
T = Trace of Precipitation, MM = Missing Value Source: NWS Daily Summary

Daily Weather History Graph

Daily Weather History Graph

Search for Another Location

Airport or City:

Trip Planner

Search our weather history database for the weather conditions in past years. The results will help you decide how hot, cold, wet, or windy it might be!

Date:

Astronomy

Jan. 24, 2014 Rise Set
Actual Time 9:48 AM AKST 5:15 PM AKST
Civil Twilight 8:59 AM AKST 6:04 PM AKST
Nautical Twilight 8:07 AM AKST 6:56 PM AKST
Astronomical Twilight 7:19 AM AKST 7:45 PM AKST
Moon 3:08 AM AKST (1/24) 11:56 AM AKST (1/24)
Length of Visible Light 9h 05m
Length of Day
7h 26m
Last Quarter, 43% of the Moon is Illuminated
Jan 24
Last Quarter
Jan 30
New
Feb 6
First Quarter
Feb 14
Full
Feb 22
Last Quarter

Hourly Weather History & Observations

Time (AKST) Temp. Windchill Dew Point Humidity Pressure Visibility Wind Dir Wind Speed Gust Speed Precip Events Conditions
12:51 AM 41.0 °F - 39.2 °F 93% 29.48 in 6.0 mi Calm Calm - 0.04 in Rain Light Rain
12:53 AM 41.0 °F - 39.9 °F 96% 29.49 in 6.0 mi Calm Calm - 0.05 in Rain Light Rain
1:53 AM 41.0 °F 37.1 °F 41.0 °F 100% 29.49 in 10.0 mi NE 5.8 mph - 0.06 in Rain Light Rain
3:53 AM 39.9 °F 35.1 °F 39.9 °F 100% 29.56 in 10.0 mi NE 6.9 mph - 0.00 in   Overcast
4:44 AM 39.2 °F 34.2 °F 39.2 °F 100% 29.56 in 10.0 mi ENE 6.9 mph - N/A   Overcast
4:53 AM 39.9 °F 35.8 °F 39.0 °F 97% 29.58 in 10.0 mi ENE 5.8 mph - N/A   Overcast
5:53 AM 37.9 °F - 37.0 °F 97% 29.62 in 10.0 mi Calm Calm - N/A   Partly Cloudy
6:53 AM 37.9 °F 35.5 °F 37.0 °F 97% 29.64 in 10.0 mi East 3.5 mph - N/A   Clear
7:53 AM 39.0 °F 33.4 °F 37.0 °F 93% 29.68 in 10.0 mi East 8.1 mph - N/A   Clear
8:53 AM 39.0 °F 31.4 °F 37.0 °F 93% 29.71 in 10.0 mi East 12.7 mph - N/A   Clear
9:53 AM 39.9 °F 32.5 °F 37.0 °F 89% 29.78 in 10.0 mi East 12.7 mph - N/A   Clear
10:53 AM 41.0 °F 33.9 °F 36.0 °F 82% 29.82 in 10.0 mi East 12.7 mph 24.2 mph N/A   Clear
11:53 AM 42.1 °F 35.2 °F 36.0 °F 79% 29.86 in 10.0 mi East 12.7 mph - N/A   Clear
12:53 PM 43.0 °F 36.4 °F 37.0 °F 80% 29.89 in 10.0 mi East 12.7 mph - N/A   Clear
1:53 PM 43.0 °F 36.4 °F 36.0 °F 76% 29.91 in 10.0 mi East 12.7 mph 21.9 mph N/A   Partly Cloudy
2:53 PM 42.1 °F 34.2 °F 36.0 °F 79% 29.93 in 10.0 mi East 16.1 mph - N/A   Mostly Cloudy
3:53 PM 42.1 °F 34.5 °F 35.1 °F 76% 29.96 in 10.0 mi East 15.0 mph - N/A   Mostly Cloudy
4:53 PM 41.0 °F 32.8 °F 34.0 °F 76% 29.96 in 10.0 mi East 16.1 mph - N/A   Mostly Cloudy
5:53 PM 39.9 °F 32.5 °F 35.1 °F 83% 30.01 in 10.0 mi East 12.7 mph - N/A   Mostly Cloudy
6:53 PM 41.0 °F 32.5 °F 35.1 °F 79% 30.01 in 10.0 mi East 17.3 mph 25.3 mph N/A   Mostly Cloudy
7:53 PM 43.0 °F 36.8 °F 35.1 °F 74% 30.01 in 10.0 mi ESE 11.5 mph 19.6 mph N/A   Overcast
8:53 PM 43.0 °F 37.7 °F 35.1 °F 74% 30.03 in 10.0 mi ESE 9.2 mph - N/A   Overcast
9:53 PM 43.0 °F 38.8 °F 35.1 °F 74% 30.03 in 10.0 mi East 6.9 mph - N/A   Overcast
10:53 PM 42.1 °F 37.7 °F 36.0 °F 79% 30.01 in 10.0 mi East 6.9 mph - N/A   Overcast
11:53 PM 44.1 °F 39.0 °F 36.0 °F 73% 29.98 in 10.0 mi East 9.2 mph - N/A   Overcast